Weather Roundup
Issued by NWS Chicago, IL

Home | Current Version | Previous Version | Text Only | Print | Product List | Glossary Off
Versions: 1 2 3 4 5 6 7 8 9 10 11 12 13 14 15 16 17 18 19 20 21 22 23 24 25 26 27 28 29 30 31 32 33 34 35 36 37 38 39 40 41 42 43 44 45 46 47 48 49 50

000
NZUS59 KLOT 262221
HRRLOT

CHICAGO AREA WEATHER ROUNDUP
NATIONAL WEATHER SERVICE CHICAGO/ROMEOVILLE IL
500 PM CDT SUN APR 26 2015

NOTE: "FAIR" INDICATES FEW OR NO CLOUDS BELOW 12,000 FEET WITH NO
SIGNIFICANT WEATHER AND/OR OBSTRUCTIONS TO VISIBILITY.

* THESE STATIONS ARE NOT UNDER NWS QUALITY CONTROL. THEY ALSO MAY NOT
  REPORT WEATHER SUCH AS PRECIPITATION OR FOG.

ILZ005-006-012>014-019>023-262300-
NORTHEAST ILLINOIS

CITY           SKY/WX    TMP DP  RH WIND       PRES   REMARKS
OHARE          MOSUNNY   54  25  32 NE13G22   30.00S
MIDWAY         MOSUNNY   55  24  30 N21       30.00F
AURORA         SUNNY     59  28  30 NE13G18   29.99S
LANSING*       SUNNY     49  27  42 N15G25    30.00S
JOLIET*        SUNNY     58  30  34 NE16G24   29.99S
WAUKEGAN       SUNNY     50  27  40 N16G22    30.01S
DUPAGE AIRPORT SUNNY     57  29  34 NE14G26   29.98S
WHEELING       SUNNY     52  25  35 NE12G22   30.02F
KANKAKEE*      SUNNY     55  30  38 NE17G24   29.99S
MORRIS*        SUNNY     58  30  33 NE6       29.96S
LEWIS AIRPORT* SUNNY     55  28  34 NE15G23   29.99S
NORTHERLY IS     N/A     47  31  54 N15         N/A
$$

WIZ051-052-058>065-066-070>072-262300-
SOUTHEAST WISCONSIN

CITY           SKY/WX    TMP DP  RH WIND       PRES   REMARKS
MILWAUKEE      MOSUNNY   48  29  47 NE12G21   30.04R
KENOSHA*       SUNNY     54  26  34 NE16      30.01S
RACINE*        SUNNY     49  29  46 NE15      30.04R
BURLINGTON     SUNNY     55  26  33 E12G17    30.00S
WEST BEND      SUNNY     54  27  35 E8        30.02R
$$

INZ001>003-010>013-019-020-262300-
NORTHWEST INDIANA

CITY           SKY/WX    TMP DP  RH WIND       PRES   REMARKS
GARY*          SUNNY     50  28  43 N20       30.01F
MICHIGAN CITY* NOT AVBL
RENSSELAER*    NOT AVBL
VALPARAISO     SUNNY     50  29  44 N16G23    29.98S
$$

LMZ740>746-262300-
SOUTHERN LAKE MICHIGAN

STATION/POSITION TIME  SKY/WX   TEMP WIND        PRES    VSBY
                                AIR  DIR/SP/G
                 (UTC)          (F)  (DEG/KT/KT) (MB)    (MI)
HARRISON CRIB    2200            41  360/ 15/ 18   N/A
BURNHAM HARBOR   2200            47  360/ 16       N/A
CALUMET HARBOR   2100            45  330/ 16/ 19   N/A
BURNS HARBOR     2100            41  360/ 15/ 18 1016.3F
MICHIGAN CITY    2200            41  360/ 10/ 12   N/A
$$

ABBREVIATIONS USED IN REMARKS
   TC - TEMPERATURE IN CELSIUS
  WCI - WIND CHILL INDEX
   HX - HEAT INDEX
  VSB - VISIBILITY
$$


USA.gov is the U.S. government's official web portal to all federal, state and local government web resources and services.